Погода в Шалыгино

Украина / Сумская область     51°33′50″N   34°07′36″E
темп.,
°C
ветер,
м/с
пор.,
м/с
влажн.,
%
обл.,
%
осадки,
мм/ч
давл.,
гПа
погр.,
м
21 января, чт
чт2123:00−17ю46940 0.0 1025126
02:00−17ю49941 0.0 1025182
05:00−16ю5119160 0.0 1024235
08:00−14ю7129471 0.0 1023301
11:00−9ююз81494100 0.4 1022412
14:00−6ююз81494100 1.0 1019526
17:00−3юз71494100 0.1 1019524
20:00−2юз71394100 0.1 1018521
22 января, пт
пт2223:00−1юз61195100 0.0 1018416
02:00−1ююз6119697 0.0 1018419
05:00−1ююз61096100 0.0 1017437
08:000ююз71097100 0.0 1017436
11:000ююз61097100 0.0 1016441
14:000ююз61198100 0.0 1015407
17:00+1ююз71197100 0.0 1014392
20:00+1ююз71297100 0.0 1014424
23 января, сб
сб2323:00+1ю71397100 0.0 1014429
02:00+1ю71297100 0.0 1013431
05:00+2ююз61398100 0.0 1012455
08:00+2ю61298100 0.0 1013330
11:00+2ю61210095 0.0 1012440
14:00+3ю5139997 0.0 1011390
17:00+3ю51399100 0.0 1011360
20:00+3ю51298100 0.0 1011349
24 января, вс
вс2423:00+3ююв61398100 0.0 1011328
02:00+3ююв61298100 0.0 1010319
05:00+3ююв61397100 0.0 1009346
08:00+4ююв71595100 0.0 1009446
11:00+4ююв71690100 0.1 1009484
14:00+4ююв91784100 0.1 1007646
17:00+4ююв102087100 0.3 1006823
20:00+3ююв91788100 0.6 1006622
25 января, пн
пн2523:00+4ююв81693100 0.1 1006562
02:00+4ююв61296100 0.2 1006362
05:00+4ююв61297100 1.1 1006371
08:00+3ю5119696 1.3 1008327
11:00+4ююв6119590 0.0 1009392
14:00+4ююв7129795 0.0 1007550
17:00+5юв81594100 0.1 1005515
20:00+5юв91990100 1.8 1003743